Date,TemperatureHighF,TemperatureAvgF,TemperatureLowF,DewpointHighF,DewpointAvgF,DewpointLowF,HumidityHigh,HumidityAvg,HumidityLow,PressureMaxIn,PressureMinIn,WindSpeedMaxMPH,WindSpeedAvgMPH,GustSpeedMaxMPH,PrecipitationSumIn
2013-2-1,19.9,16.3,12.6,11.4,8.7,5.0,78,72,61,30.66,30.35,9,1,9,0.00
2013-2-2,20.7,14.2,4.5,12.5,7.6,-0.7,82,75,64,30.63,30.48,4,0,4,0.00
2013-2-3,22.6,12.3,2.8,14.2,6.2,-2.0,82,77,67,30.52,30.31,10,0,10,0.00
2013-2-4,24.1,14.9,6.6,15.4,8.9,1.8,83,77,65,30.49,30.38,2,0,2,0.00
2013-2-5,26.8,16.3,1.9,22.1,10.9,-2.7,83,79,73,30.47,30.23,6,0,6,0.00
2013-2-6,33.1,21.4,7.0,21.1,14.2,2.7,85,74,60,30.75,30.46,5,0,5,0.00
2013-2-7,31.8,27.6,24.6,26.0,22.9,19.1,89,82,75,30.74,30.44,5,0,5,0.00
2013-2-8,34.9,25.0,10.6,25.7,19.9,5.8,90,81,64,30.86,30.40,10,1,10,0.00
2013-2-9,33.8,13.6,-0.8,24.2,7.7,-5.0,84,78,63,30.93,30.74,3,0,3,0.00
2013-2-10,35.8,22.6,8.4,33.2,18.1,4.3,91,83,73,30.75,30.11,4,0,4,0.00
2013-2-11,38.8,35.9,31.6,36.7,31.4,26.2,92,84,74,30.29,29.96,21,2,21,0.00
2013-2-12,31.6,29.4,25.5,26.2,22.5,18.6,80,75,71,30.49,30.29,8,1,8,0.00
2013-2-13,35.8,29.8,24.8,28.3,23.8,18.9,83,78,74,30.40,30.21,8,0,8,0.00
2013-2-14,40.3,32.9,28.6,35.0,28.9,24.0,89,85,79,30.32,30.09,10,0,10,0.00
2013-2-15,29.3,24.7,17.4,24.0,16.8,10.5,83,72,60,30.61,30.31,14,1,14,0.00
2013-2-16,25.5,18.1,11.1,17.8,12.3,6.6,83,78,67,30.59,30.49,2,0,2,0.00
2013-2-17,28.0,13.1,1.0,13.1,5.1,-3.6,83,71,52,30.69,30.59,6,0,6,0.00
2013-2-18,40.3,29.7,13.1,34.1,19.9,5.8,84,67,55,30.66,30.00,5,0,5,0.00
2013-2-19,40.5,30.6,19.2,37.4,25.8,13.4,90,82,73,30.35,29.82,17,2,17,0.00
2013-2-20,24.4,20.8,14.5,13.9,12.3,7.7,77,70,62,30.74,30.39,8,1,8,0.00
2013-2-21,27.0,19.9,17.4,18.4,12.5,9.9,85,73,61,30.90,30.73,5,0,5,0.00
2013-2-22,30.2,25.6,21.0,27.4,21.7,16.7,89,85,80,30.78,30.33,8,0,8,0.00
2013-2-23,34.9,30.1,25.9,29.2,25.4,21.5,90,83,69,30.38,30.31,8,0,8,0.00
2013-2-24,43.3,30.7,24.6,30.0,23.9,20.1,87,76,56,30.64,30.35,5,0,5,0.00
2013-2-25,39.9,32.0,24.6,28.8,24.0,18.4,82,73,59,30.71,30.61,5,0,5,0.00
2013-2-26,35.2,29.9,22.6,29.9,25.0,17.0,91,82,74,30.65,30.10,19,3,19,0.00
2013-2-27,34.2,32.9,31.8,32.0,30.8,29.6,93,92,91,30.11,30.02,6,1,6,0.00
2013-2-28,36.0,32.6,28.6,32.5,28.4,21.9,93,85,76,30.51,30.09,7,0,7,0.00